Погода в Порбандаре

Индия     21°38′12″N   69°36′45″E
темп.,
°C
ветер,
м/с
пор.,
м/с
влажн.,
%
обл.,
%
осадки,
мм/ч
давл.,
гПа
погр.,
м
26 февраля, пт
пт2623:30+22сз46830 0.0 1013129
02:30+22сз46850 0.0 1012131
05:30+21сз34850 0.0 1011110
08:30+23ссз23740 0.0 1014163
11:30+30з55390 0.0 1014760
14:30+30зсз99400 0.0 1010751
17:30+28зсз79530 0.0 1009554
20:30+24зсз46790 0.0 1011143
27 февраля, сб
сб2723:30+23зсз58830 0.0 1011163
02:30+23сз46850 0.0 1009141
05:30+22сз46860 0.0 1009137
08:30+24сз47750 0.0 1012310
11:30+31сз56330 0.0 1013941
14:30+32зсз87350 0.0 1010907
17:30+29зсз810470 0.0 1008450
20:30+24сз58830 0.0 1011169
28 февраля, вс
вс2823:30+23сз45880 0.0 1011120
02:30+22сз45910 0.0 1010142
05:30+22сз34930 0.0 1009124
08:30+23ссз35850 0.0 1012247
11:30+31зсз45380 0.0 1013854
14:30+31зсз87380 0.0 1010748
17:30+29зсз89440 0.0 1009435
20:30+24сз59660 0.0 1011159
1 марта, пн
пн123:30+22ссз56710 0.0 1012122
02:30+21ссз56690 0.0 1011124
05:30+20с45670 0.0 101187
08:30+23с45580 0.0 1013201
11:30+31с55270 0.0 1014762
14:30+34сз55210 0.0 10111220
17:30+33сз65210 0.0 10111072
20:30+25ссз56340 0.0 101357
2 марта, вт
вт223:30+22с55490 0.0 101484
02:30+21ссз45470 0.0 101373
05:30+19ссз46640 0.0 101288
08:30+22с68620 0.0 1015252
11:30+31ссв34220 0.0 1015684
14:30+33зсз43200 0.0 10121375
17:30+32зсз55220 0.0 1011613
20:30+25сз56360 0.0 101282